Tampa Knight Airport, FL

8:28 PM EST on November 19, 2019 (GMT -0500)
Knight

Weather History for KTPF - September, 2019

Change the Weather History Date:

Wednesday, September 18, 2019

  Actual Average (KTPA) Record (KTPA)
Temperature  
Mean Temperature 82 °F -  
Max Temperature 91 °F 86 °F 95 °F (1960)
Min Temperature 73 °F 73 °F 62 °F (1981)
Cooling Degree Days 17    
Growing Degree Days 32 (Base 50)    
Moisture  
Dew Point 73 °F    
Average Humidity 76    
Maximum Humidity 100    
Minimum Humidity 49    
Precipitation  
Precipitation 0.17 in - - ()
Sea Level Pressure  
Sea Level Pressure 29.97 in    
Wind  
Wind Speed 2 mph (ENE)    
Max Wind Speed 20 mph    
Max Gust Speed 26 mph    
Visibility 10 miles    
Events Rain    
Averages and records for this station are not official NWS values.
T = Trace of Precipitation, MM = Missing Value Source: NWS Daily Summary

Daily Weather History Graph

Daily Weather History Graph

Search for Another Location

Airport or City:

Astronomy

Sep. 18, 2019 Rise Set
Actual Time 7:16 AM EDT 7:31 PM EDT
Civil Twilight 6:52 AM EDT 7:54 PM EDT
Nautical Twilight 6:25 AM EDT 8:21 PM EDT
Astronomical Twilight 5:57 AM EDT 8:49 PM EDT
Moon 10:25 PM EDT (9/18) 10:59 AM EDT (9/18)
Length of Visible Light 13h 01m
Length of Day
12h 14m
Waning Gibbous, 82% of the Moon is Illuminated
Sep 18
Waning Gibbous
Sep 21
Last Quarter
Sep 28
New
Oct 5
First Quarter
Oct 13
Full

Hourly Weather History & Observations

Time (EDT) Temp. Heat Index Dew Point Humidity Pressure Visibility Wind Dir Wind Speed Gust Speed Precip Events Conditions
12:15 AM 80.6 °F 86.2 °F 75.2 °F 84% 29.97 in 10.0 mi Calm Calm - N/A   Overcast
12:35 AM 80.6 °F 84.6 °F 71.6 °F 74% 29.96 in 10.0 mi Calm Calm - N/A   Overcast
12:55 AM 80.6 °F 84.6 °F 71.6 °F 74% 29.96 in 10.0 mi Calm Calm - N/A   Mostly Cloudy
1:15 AM 80.6 °F 84.6 °F 71.6 °F 74% 29.96 in 10.0 mi Calm Calm - N/A   Overcast
1:35 AM 80.6 °F 83.9 °F 69.8 °F 70% 29.96 in 10.0 mi NE 3.5 mph - N/A   Overcast
1:55 AM 80.6 °F 83.9 °F 69.8 °F 70% 29.96 in 10.0 mi Calm Calm - N/A   Overcast
2:15 AM 78.8 °F - 69.8 °F 74% 29.95 in 10.0 mi ENE 3.5 mph - N/A   Overcast
2:35 AM 78.8 °F - 69.8 °F 74% 29.95 in 10.0 mi Calm Calm - N/A   Overcast
2:55 AM 77.0 °F - 71.6 °F 83% 29.94 in 10.0 mi Calm Calm - N/A   Overcast
3:15 AM 77.0 °F - 71.6 °F 83% 29.94 in 10.0 mi Calm Calm - N/A   Overcast
3:35 AM 77.0 °F - 71.6 °F 83% 29.94 in 10.0 mi Calm Calm - N/A   Overcast
3:55 AM 77.0 °F - 71.6 °F 83% 29.95 in 10.0 mi Calm Calm - N/A   Overcast
4:15 AM 77.0 °F - 71.6 °F 83% 29.95 in 10.0 mi Calm Calm - N/A   Overcast
4:35 AM 75.2 °F - 71.6 °F 89% 29.95 in 10.0 mi Calm Calm - N/A   Overcast
4:55 AM 75.2 °F - 71.6 °F 89% 29.95 in 10.0 mi Calm Calm - N/A   Overcast
5:15 AM 75.2 °F - 71.6 °F 89% 29.95 in 10.0 mi Calm Calm - N/A   Overcast
5:35 AM 75.2 °F - 71.6 °F 89% 29.95 in 10.0 mi Calm Calm - N/A   Overcast
5:55 AM 75.2 °F - 71.6 °F 89% 29.95 in 10.0 mi Calm Calm - N/A   Overcast
6:15 AM 75.2 °F - 71.6 °F 89% 29.96 in 10.0 mi Calm Calm - N/A   Overcast
6:35 AM 75.2 °F - 71.6 °F 89% 29.97 in 10.0 mi Calm Calm - N/A   Overcast
6:55 AM 75.2 °F - 71.6 °F 89% 29.97 in 10.0 mi Calm Calm - N/A   Overcast
7:15 AM 73.4 °F - 73.4 °F 100% 29.98 in 10.0 mi Calm Calm - N/A   Overcast
7:35 AM 75.2 °F - 73.4 °F 94% 29.99 in 10.0 mi Calm Calm - N/A   Overcast
7:55 AM 75.2 °F - 71.6 °F 89% 29.99 in 10.0 mi Calm Calm - N/A   Overcast
8:15 AM 77.0 °F - 71.6 °F 83% 29.99 in 10.0 mi Calm Calm - N/A   Overcast
8:35 AM 78.8 °F - 73.4 °F 83% 30.00 in 10.0 mi NE 3.5 mph - N/A   Overcast
8:55 AM 80.6 °F 85.4 °F 73.4 °F 79% 30.00 in 10.0 mi NE 4.6 mph - N/A   Overcast
9:15 AM 80.6 °F 85.4 °F 73.4 °F 79% 30.00 in 10.0 mi NE 5.8 mph - N/A   Overcast
9:35 AM 82.4 °F 89.5 °F 75.2 °F 79% 30.00 in 10.0 mi NE 5.8 mph - N/A   Overcast
9:55 AM 82.4 °F 89.5 °F 75.2 °F 79% 30.00 in 10.0 mi ENE 4.6 mph - N/A   Mostly Cloudy
10:15 AM 84.2 °F 94.1 °F 77.0 °F 79% 30.00 in 10.0 mi East 4.6 mph - N/A   Mostly Cloudy
10:35 AM 86.0 °F 96.9 °F 77.0 °F 74% 30.00 in 10.0 mi ENE 5.8 mph - N/A   Overcast
10:55 AM 86.0 °F 95.1 °F 75.2 °F 70% 30.00 in 10.0 mi NE 5.8 mph - N/A   Mostly Cloudy
11:15 AM 87.8 °F 97.6 °F 75.2 °F 66% 30.00 in 10.0 mi NE 4.6 mph - N/A   Scattered Clouds
11:35 AM 87.8 °F 95.6 °F 73.4 °F 62% 30.00 in 10.0 mi NE 3.5 mph - N/A   Scattered Clouds
11:55 AM 87.8 °F 95.6 °F 73.4 °F 62% 30.00 in 10.0 mi NE 5.8 mph - N/A   Mostly Cloudy
12:35 PM 89.6 °F 96.2 °F 71.6 °F 55% 29.99 in 10.0 mi Calm Calm - N/A   Mostly Cloudy
12:55 PM 91.4 °F 96.8 °F 69.8 °F 49% 29.98 in 10.0 mi Calm Calm - N/A   Mostly Cloudy
1:15 PM 91.4 °F 98.4 °F 71.6 °F 52% 29.98 in 10.0 mi SSW 4.6 mph - N/A   Mostly Cloudy
1:35 PM 91.4 °F 98.4 °F 71.6 °F 52% 29.97 in 10.0 mi South 4.6 mph - N/A   Overcast
1:55 PM 91.4 °F 100.1 °F 73.4 °F 55% 29.97 in 10.0 mi SSW 8.1 mph - N/A   Mostly Cloudy
2:15 PM 91.4 °F 100.1 °F 73.4 °F 55% 29.97 in 10.0 mi SSW 6.9 mph - N/A   Mostly Cloudy
2:35 PM 91.4 °F 100.1 °F 73.4 °F 55% 29.96 in 10.0 mi SW 5.8 mph - N/A   Mostly Cloudy
2:55 PM 91.4 °F 100.1 °F 73.4 °F 55% 29.96 in 10.0 mi SSW 6.9 mph - N/A   Mostly Cloudy
3:15 PM 91.4 °F 98.4 °F 71.6 °F 52% 29.95 in 10.0 mi SW 3.5 mph - N/A   Mostly Cloudy
3:35 PM 91.4 °F 98.4 °F 71.6 °F 52% 29.94 in 10.0 mi WSW 5.8 mph - N/A   Mostly Cloudy
3:55 PM 89.6 °F 96.2 °F 71.6 °F 55% 29.94 in 10.0 mi Calm Calm - N/A   Overcast
4:15 PM 87.8 °F 95.6 °F 73.4 °F 62% 29.93 in 10.0 mi East 8.1 mph - N/A   Overcast
4:35 PM 86.0 °F 93.4 °F 73.4 °F 66% 29.92 in 10.0 mi South 6.9 mph - N/A   Overcast
4:55 PM 89.6 °F 96.2 °F 71.6 °F 55% 29.92 in 10.0 mi East 5.8 mph - N/A   Mostly Cloudy
5:15 PM 89.6 °F 96.2 °F 71.6 °F 55% 29.92 in 10.0 mi Calm Calm - N/A   Scattered Clouds
5:35 PM 89.6 °F 98.2 °F 73.4 °F 59% 29.93 in 10.0 mi East 4.6 mph - N/A   Mostly Cloudy
5:55 PM 89.6 °F 98.2 °F 73.4 °F 59% 29.93 in 10.0 mi East 3.5 mph - N/A   Overcast
6:15 PM 89.6 °F 96.2 °F 71.6 °F 55% 29.93 in 10.0 mi ENE 3.5 mph - N/A   Overcast
6:35 PM 87.8 °F 95.6 °F 73.4 °F 62% 29.94 in 10.0 mi NW 6.9 mph - N/A   Overcast
6:55 PM 84.2 °F 90.9 °F 73.4 °F 70% 29.96 in 10.0 mi ENE 15.0 mph 23.0 mph N/A   Overcast
7:15 PM 75.2 °F - 71.6 °F 89% 29.97 in 4.0 mi ENE 19.6 mph 26.5 mph 0.08 in Rain Rain
7:35 PM 75.2 °F - 71.6 °F 89% 29.96 in 10.0 mi East 8.1 mph 17.3 mph 0.17 in Rain Light Rain
7:55 PM 77.0 °F - 71.6 °F 83% 29.97 in 10.0 mi East 3.5 mph - 0.17 in   Mostly Cloudy
8:15 PM 77.0 °F - 73.4 °F 89% 29.97 in 10.0 mi East 4.6 mph - N/A   Overcast
8:55 PM 77.0 °F - 73.4 °F 89% 29.98 in 10.0 mi NE 5.8 mph - N/A   Mostly Cloudy
9:15 PM 77.0 °F - 75.2 °F 94% 29.98 in 10.0 mi NE 5.8 mph - N/A   Overcast
9:35 PM 78.8 °F - 77.0 °F 94% 29.99 in 10.0 mi ENE 5.8 mph - N/A   Overcast
9:55 PM 78.8 °F - 77.0 °F 94% 29.99 in 10.0 mi ENE 6.9 mph - N/A   Overcast
10:15 PM 78.8 °F - 77.0 °F 94% 30.01 in 10.0 mi NE 6.9 mph - N/A   Overcast
10:35 PM 78.8 °F - 77.0 °F 94% 30.01 in 10.0 mi NE 5.8 mph - N/A   Overcast
10:55 PM 78.8 °F - 78.8 °F 100% 30.02 in 10.0 mi NE 5.8 mph - N/A   Overcast
11:15 PM 78.8 °F - 78.8 °F 100% 30.02 in 10.0 mi NE 4.6 mph - N/A   Overcast
11:35 PM - - - N/A% 30.02 in 10.0 mi NE 8.1 mph - N/A   Overcast
11:55 PM - - - N/A% 30.02 in 10.0 mi NE 8.1 mph - N/A   Overcast